{"data":{"norad_id":62094,"intl_designator":"2024-220G","name":"STARLINK-11381 [DTC]","alt_names":[],"object_type":"PAYLOAD","status":"ACTIVE","operator":null,"country":"US","launch_date":"2024-11-25","launch_site_code":"AFETR","launch_vehicle":null,"mission":null,"orbit_class":"UNKNOWN","rcs_meters":null,"size_class":null,"mass_kg":null,"dimensions":null,"purposes":["comms"],"wikipedia_slug":null,"has_3d_model":false,"image_url":null,"decayed_at":null,"tle_current":{"epoch":"2026-05-24T20:38:51.757728Z","epoch_age_seconds":83550,"freshness":"FRESH","line1":"1 62094U 24220G   26144.86032127  .00212563  00000+0  16152-2 0  9992","line2":"2 62094  42.9992 303.8715 0001471 267.7017  92.3682 15.70882095 86939","mean_motion":15.70882095,"eccentricity":0.0001471,"inclination_deg":42.9992,"raan_deg":303.8715,"arg_perigee_deg":267.7017,"mean_anomaly_deg":92.3682,"bstar":0.0016152,"rev_number":8693,"period_min":91.668241975856,"perigee_km":355.38410218885,"apogee_km":357.36539554536,"semimajor_km":6734.5117488671,"source":"CELESTRAK","updated_at":"2026-05-25T13:38:19.558128Z"}}}